STARLINK-5755, 55600

Orbit data source: Space-Track

STARLINK-5755, 55600 is a payload satellite owned by SpaceX/Seattle (US) in LEO that was launched on Sun, 12 Feb 2023 UTC via an FALCON 9 launch vehicle from the Air Force Eastern Test Range (AFETR). Payload-class satellites include a variety of spacecraft equipped with specific instruments for various scientific and technological missions. These include communications satellites like Starlink; space stations such as the ISS; scientific satellites like the Hubble; Earth observation satellites from companies like Planet Labs, Umbra, and HawkEye 360; GPS; miniature CubeSats for education and research; and military/defense satellites.

Loading next visibility...
Identifier
55600, 2023-020AH
Orbit
LEO
Country
Flag of USUS
Related business
Manufacturer
SpaceX/Seattle
Mission
Operational spacecraft
Bus & Motor
STARLINK, Unknown motor
Mass
305 kg wet, ~290 kg dry
Launch date (UTC)
2023-02-12 (3 years ago)
Launch vehicle
FALCON 9
Launch site
Air Force Eastern Test Range (AFETR)
Object type
Payload
Rocket body
Debris
Shape & HBR
Unknown shape, 10.1 m
Radar Cross Section
Large (>1 m²)

Expand to show TLE details & history
Last TLE update: 18 hours ago

TLE from 18 hours ago
0 STARLINK-5755
1 55600U 23020AH  26061.62718099  .00001291  00000-0  11064-3 0  9998
2 55600  43.0045  30.3214 0001080 268.9819  91.0899 15.02532859168000
Epoch: 2026-03-02T15:03Z
TLE epoch observation values (Epoch: 2026-03-02T15:03:08.437Z)
Latitude
-0.00006°
Longitude
4.1183°
Altitude
558.882 km
Speed
7.584 km/s
True Right ascension
02h 01m 17s
True Declination
0° 00' 00"
Sunlit
Object was in daylight at epoch
Visualization orbit readout
Latitude
Unknown
Longitude
Unknown
Altitude
Unknown
Speed
Unknown
Apparent Right ascension
Unknown
Apparent Declination
Unknown
Sunlit
N/A
Visualization observer readout
Local Sidereal Time
13:10:26
Azimuth
Unknown
Elevation
Unknown
Doppler factor
Unknown
Orbital elements
Apogee altitude
561.762 km
Perigee altitude
560.263 km
Semi-major axis
6,939.149 km
Eccentricity
0.00011
Inclination
43.0045°
RAAN
30.3214°
Arg. of periapsis
268.9819°
True anomaly
91.10227°
Mean anomaly
91.0899°
Eccentric anomaly
91.09609°
Mean motion
3.75477 °/min
Orbital period
95.88 mins
BSTAR
0.00011064
Loading maneuver chart data...
Computing Atmospheric mass density...
Loading historical data...
Loading historical data...
Loading historical data...
Loading historical data...
Loading historical data...
Loading historical data...
Loading historical data...

Documentation

Showing up to 5 results
|